Time,TemperatureF,DewpointF,PressureIn,WindDirection,WindDirectionDegrees,WindSpeedMPH,WindSpeedGustMPH,Humidity,HourlyPrecipIn,Conditions,Clouds,dailyrainin,SoftwareType,DateUTC
2013-07-21 00:00:00,76.6,64.9,28.88,SE,131,3.6,4.0,67,0.00,,---,0.00,VWS V14.01,2013-07-21 04:00:00,
2013-07-21 00:01:00,76.6,64.9,28.88,SE,126,2.7,4.0,67,0.00,,---,0.00,VWS V14.01,2013-07-21 04:01:00,
2013-07-21 00:02:00,76.6,64.9,28.88,SSE,162,0.0,4.0,67,0.00,,---,0.00,VWS V14.01,2013-07-21 04:02:00,
2013-07-21 00:03:00,76.6,64.9,28.88,SSE,162,0.0,0.0,67,0.00,,---,0.00,VWS V14.01,2013-07-21 04:03:00,
2013-07-21 00:04:00,76.6,64.9,28.88,SSE,162,0.0,0.0,67,0.00,,---,0.00,VWS V14.01,2013-07-21 04:04:00,
2013-07-21 00:05:00,76.6,64.9,28.88,SSE,162,0.0,0.0,67,0.00,,---,0.00,VWS V14.01,2013-07-21 04:05:00,
2013-07-21 00:06:00,76.6,64.9,28.88,SSE,162,0.0,0.0,67,0.00,,---,0.00,VWS V14.01,2013-07-21 04:06:00,
2013-07-21 00:07:00,76.6,64.9,28.88,SSE,162,0.0,0.0,67,0.00,,---,0.00,VWS V14.01,2013-07-21 04:07:00,
2013-07-21 00:08:00,76.5,64.7,28.88,SSE,162,0.0,0.0,67,0.00,,---,0.00,VWS V14.01,2013-07-21 04:08:00,
2013-07-21 00:09:00,76.5,64.7,28.88,SSE,162,0.0,0.0,67,0.00,,---,0.00,VWS V14.01,2013-07-21 04:09:00,
2013-07-21 00:10:00,76.5,64.7,28.88,SSE,162,0.0,0.0,67,0.00,,---,0.00,VWS V14.01,2013-07-21 04:10:00,
2013-07-21 00:11:00,76.5,64.7,28.88,SSE,162,0.0,0.0,67,0.00,,---,0.00,VWS V14.01,2013-07-21 04:11:00,
2013-07-21 00:12:00,76.5,64.7,28.88,SSE,162,0.0,3.6,67,0.00,,---,0.00,VWS V14.01,2013-07-21 04:12:00,
2013-07-21 00:13:00,76.5,64.7,28.88,SSE,162,0.0,0.0,67,0.00,,---,0.00,VWS V14.01,2013-07-21 04:13:00,
2013-07-21 00:14:00,76.5,64.7,28.88,SSE,162,0.0,0.0,67,0.00,,---,0.00,VWS V14.01,2013-07-21 04:14:00,
2013-07-21 00:15:00,76.5,64.7,28.88,SSE,162,0.0,0.0,67,0.00,,---,0.00,VWS V14.01,2013-07-21 04:15:00,
2013-07-21 00:16:00,76.3,64.5,28.88,SSE,162,0.0,0.0,67,0.00,,---,0.00,VWS V14.01,2013-07-21 04:16:00,
2013-07-21 00:17:00,76.3,64.5,28.88,SSE,162,0.0,0.0,67,0.00,,---,0.00,VWS V14.01,2013-07-21 04:17:00,
2013-07-21 00:18:00,76.3,64.5,28.88,SSE,162,0.0,0.0,67,0.00,,---,0.00,VWS V14.01,2013-07-21 04:18:00,
2013-07-21 00:19:00,76.3,64.5,28.88,SSE,162,0.0,0.0,67,0.00,,---,0.00,VWS V14.01,2013-07-21 04:19:00,
2013-07-21 00:20:00,76.1,64.4,28.88,SSE,162,0.0,0.0,67,0.00,,---,0.00,VWS V14.01,2013-07-21 04:20:00,
2013-07-21 00:21:00,76.1,64.4,28.88,SSE,162,0.0,0.0,67,0.00,,---,0.00,VWS V14.01,2013-07-21 04:21:00,
2013-07-21 00:22:00,76.1,64.4,28.88,SSE,162,0.0,0.0,67,0.00,,---,0.00,VWS V14.01,2013-07-21 04:22:00,
2013-07-21 00:23:00,76.1,64.4,28.88,SSE,162,0.0,0.0,67,0.00,,---,0.00,VWS V14.01,2013-07-21 04:23:00,
2013-07-21 00:24:00,75.9,64.2,28.88,SSE,162,0.0,0.0,67,0.00,,---,0.00,VWS V14.01,2013-07-21 04:24:00,
2013-07-21 00:25:00,75.9,64.2,28.88,SSE,162,0.0,0.0,67,0.00,,---,0.00,VWS V14.01,2013-07-21 04:25:00,
2013-07-21 00:26:00,75.9,64.6,28.88,SSE,162,0.0,0.0,68,0.00,,---,0.00,VWS V14.01,2013-07-21 04:26:00,
2013-07-21 00:27:00,75.7,64.4,28.88,SSE,162,0.0,0.0,68,0.00,,---,0.00,VWS V14.01,2013-07-21 04:27:00,
2013-07-21 00:28:00,75.7,64.4,28.88,SSE,162,0.0,0.0,68,0.00,,---,0.00,VWS V14.01,2013-07-21 04:28:00,
2013-07-21 00:29:00,75.7,64.4,28.88,SSE,162,0.0,0.0,68,0.00,,---,0.00,VWS V14.01,2013-07-21 04:29:00,
2013-07-21 00:30:00,75.7,64.4,28.88,ESE,112,3.1,3.1,68,0.00,,---,0.00,VWS V14.01,2013-07-21 04:30:00,
2013-07-21 00:31:00,75.7,64.9,28.88,ESE,110,3.6,3.6,69,0.00,,---,0.00,VWS V14.01,2013-07-21 04:31:00,
2013-07-21 00:32:00,75.7,64.9,28.88,ESE,108,3.1,4.5,69,0.00,,---,0.00,VWS V14.01,2013-07-21 04:32:00,
2013-07-21 00:33:00,75.7,65.3,28.88,ESE,108,0.0,3.1,70,0.00,,---,0.00,VWS V14.01,2013-07-21 04:33:00,
2013-07-21 00:34:00,75.7,65.3,28.88,ESE,108,0.0,0.0,70,0.00,,---,0.00,VWS V14.01,2013-07-21 04:34:00,
2013-07-21 00:35:00,75.7,64.9,28.88,ESE,108,0.0,0.0,69,0.00,,---,0.00,VWS V14.01,2013-07-21 04:35:00,
2013-07-21 00:36:00,75.6,64.7,28.88,ESE,108,0.0,0.0,69,0.00,,---,0.00,VWS V14.01,2013-07-21 04:36:00,
2013-07-21 00:37:00,75.6,64.7,28.88,ESE,108,0.0,0.0,69,0.00,,---,0.00,VWS V14.01,2013-07-21 04:37:00,
2013-07-21 00:38:00,75.6,64.7,28.88,ESE,107,0.0,0.0,69,0.00,,---,0.00,VWS V14.01,2013-07-21 04:38:00,
2013-07-21 00:39:00,75.4,64.5,28.88,ESE,103,0.0,0.0,69,0.00,,---,0.00,VWS V14.01,2013-07-21 04:39:00,
2013-07-21 00:40:00,75.4,64.9,28.88,ESE,118,3.1,4.5,70,0.00,,---,0.00,VWS V14.01,2013-07-21 04:40:00,
2013-07-21 00:41:00,75.4,64.9,28.88,ESE,118,0.0,3.1,70,0.00,,---,0.00,VWS V14.01,2013-07-21 04:41:00,
2013-07-21 00:42:00,75.4,64.9,28.85,ESE,118,3.1,3.6,70,0.00,,---,0.00,VWS V14.01,2013-07-21 04:42:00,
2013-07-21 00:43:00,75.4,64.9,28.85,ESE,118,0.0,3.1,70,0.00,,---,0.00,VWS V14.01,2013-07-21 04:43:00,
2013-07-21 00:44:00,75.4,64.9,28.85,ESE,118,0.0,3.1,70,0.00,,---,0.00,VWS V14.01,2013-07-21 04:44:00,
2013-07-21 00:45:00,75.4,64.9,28.85,ESE,118,0.0,0.0,70,0.00,,---,0.00,VWS V14.01,2013-07-21 04:45:00,
2013-07-21 00:46:00,75.4,64.9,28.85,ESE,118,0.0,0.0,70,0.00,,---,0.00,VWS V14.01,2013-07-21 04:46:00,
2013-07-21 00:47:00,75.4,65.3,28.85,ESE,118,0.0,0.0,71,0.00,,---,0.00,VWS V14.01,2013-07-21 04:47:00,
2013-07-21 00:48:00,75.4,65.3,28.85,ESE,118,0.0,0.0,71,0.00,,---,0.00,VWS V14.01,2013-07-21 04:48:00,
2013-07-21 00:49:00,75.2,65.2,28.85,ESE,118,0.0,0.0,71,0.00,,---,0.00,VWS V14.01,2013-07-21 04:49:00,
2013-07-21 00:50:00,75.2,64.8,28.85,ESE,118,0.0,0.0,70,0.00,,---,0.00,VWS V14.01,2013-07-21 04:50:00,
2013-07-21 00:51:00,75.2,64.8,28.85,ESE,118,0.0,0.0,70,0.00,,---,0.00,VWS V14.01,2013-07-21 04:51:00,
2013-07-21 00:52:00,75.2,64.8,28.85,ESE,118,0.0,0.0,70,0.00,,---,0.00,VWS V14.01,2013-07-21 04:52:00,
2013-07-21 00:53:00,75.0,64.6,28.85,ESE,118,0.0,0.0,70,0.00,,---,0.00,VWS V14.01,2013-07-21 04:53:00,
2013-07-21 00:54:00,75.0,64.6,28.85,ESE,118,0.0,0.0,70,0.00,,---,0.00,VWS V14.01,2013-07-21 04:54:00,
2013-07-21 00:55:00,75.0,64.6,28.85,ESE,118,0.0,0.0,70,0.00,,---,0.00,VWS V14.01,2013-07-21 04:55:00,
2013-07-21 00:56:00,75.0,64.6,28.85,ESE,118,0.0,0.0,70,0.00,,---,0.00,VWS V14.01,2013-07-21 04:56:00,
2013-07-21 00:57:00,75.0,64.6,28.85,ESE,118,0.0,0.0,70,0.00,,---,0.00,VWS V14.01,2013-07-21 04:57:00,
2013-07-21 00:58:00,74.8,64.4,28.85,ESE,118,0.0,0.0,70,0.00,,---,0.00,VWS V14.01,2013-07-21 04:58:00,
2013-07-21 00:59:00,74.8,64.4,28.85,ESE,118,0.0,0.0,70,0.00,,---,0.00,VWS V14.01,2013-07-21 04:59:00,
2013-07-21 01:00:00,74.8,64.4,28.85,ESE,118,0.0,0.0,70,0.00,,---,0.00,VWS V14.01,2013-07-21 05:00:00,
2013-07-21 01:01:00,74.8,64.4,28.85,ESE,118,0.0,0.0,70,0.00,,---,0.00,VWS V14.01,2013-07-21 05:01:00,
2013-07-21 01:02:00,74.8,64.4,28.85,ESE,118,0.0,0.0,70,0.00,,---,0.00,VWS V14.01,2013-07-21 05:02:00,
2013-07-21 01:03:00,74.7,64.2,28.85,ESE,118,0.0,0.0,70,0.00,,---,0.00,VWS V14.01,2013-07-21 05:03:00,
2013-07-21 01:04:00,74.7,64.2,28.85,ESE,118,0.0,0.0,70,0.00,,---,0.00,VWS V14.01,2013-07-21 05:04:00,
2013-07-21 01:05:00,74.7,64.2,28.85,ESE,118,3.1,3.6,70,0.00,,---,0.00,VWS V14.01,2013-07-21 05:05:00,
2013-07-21 01:06:00,74.7,64.6,28.85,East,100,0.0,3.6,71,0.00,,---,0.00,VWS V14.01,2013-07-21 05:06:00,
2013-07-21 01:07:00,74.7,64.6,28.85,East,100,0.0,0.0,71,0.00,,---,0.00,VWS V14.01,2013-07-21 05:07:00,
2013-07-21 01:08:00,74.7,64.6,28.85,East,101,0.0,0.0,71,0.00,,---,0.00,VWS V14.01,2013-07-21 05:08:00,
2013-07-21 01:09:00,74.7,64.6,28.85,SE,130,0.0,3.6,71,0.00,,---,0.00,VWS V14.01,2013-07-21 05:09:00,
2013-07-21 01:10:00,74.8,65.2,28.85,SE,137,4.0,4.0,72,0.00,,---,0.00,VWS V14.01,2013-07-21 05:10:00,
2013-07-21 01:11:00,74.8,65.2,28.85,SE,136,4.9,4.9,72,0.00,,---,0.00,VWS V14.01,2013-07-21 05:11:00,
2013-07-21 01:12:00,74.8,65.6,28.85,SE,140,4.0,5.4,73,0.00,,---,0.00,VWS V14.01,2013-07-21 05:12:00,
2013-07-21 01:13:00,75.0,65.8,28.85,ESE,121,4.9,5.4,73,0.00,,---,0.00,VWS V14.01,2013-07-21 05:13:00,
2013-07-21 01:14:00,75.0,65.4,28.85,ESE,118,2.7,4.9,72,0.00,,---,0.00,VWS V14.01,2013-07-21 05:14:00,
2013-07-21 01:15:00,75.0,65.4,28.85,SSE,150,0.0,4.0,72,0.00,,---,0.00,VWS V14.01,2013-07-21 05:15:00,
2013-07-21 01:16:00,75.0,65.4,28.85,SSE,150,0.0,2.7,72,0.00,,---,0.00,VWS V14.01,2013-07-21 05:16:00,
2013-07-21 01:17:00,75.0,65.4,28.85,SSE,150,0.0,0.0,72,0.00,,---,0.00,VWS V14.01,2013-07-21 05:17:00,
2013-07-21 01:18:00,74.8,65.2,28.85,SSE,150,0.0,0.0,72,0.00,,---,0.00,VWS V14.01,2013-07-21 05:18:00,
2013-07-21 01:19:00,74.8,65.2,28.85,SSE,150,0.0,0.0,72,0.00,,---,0.00,VWS V14.01,2013-07-21 05:19:00,
2013-07-21 01:20:00,69.8,68.0,28.88,WSW,238,0.0,3.1,94,0.00,,---,0.00,VWS V14.01,2013-07-21 05:20:00,
2013-07-21 01:21:00,74.8,65.2,28.85,East,79,0.0,4.5,72,0.00,,---,0.00,VWS V14.01,2013-07-21 05:21:00,
2013-07-21 01:22:00,74.8,65.2,28.85,ESE,102,4.5,5.4,72,0.00,,---,0.00,VWS V14.01,2013-07-21 05:22:00,
2013-07-21 01:23:00,74.8,65.2,28.85,SE,129,4.9,4.9,72,0.00,,---,0.00,VWS V14.01,2013-07-21 05:23:00,
2013-07-21 01:24:00,74.8,65.2,28.85,SE,142,2.7,4.9,72,0.00,,---,0.00,VWS V14.01,2013-07-21 05:24:00,
2013-07-21 01:25:00,69.8,68.0,28.88,NW,317,0.0,0.0,94,0.00,,---,0.00,VWS V14.01,2013-07-21 05:25:00,
2013-07-21 01:26:00,75.0,65.4,28.85,SE,132,0.0,4.0,72,0.00,,---,0.00,VWS V14.01,2013-07-21 05:26:00,
2013-07-21 01:27:00,75.0,65.4,28.85,SE,132,0.0,3.1,72,0.00,,---,0.00,VWS V14.01,2013-07-21 05:27:00,
2013-07-21 01:29:00,75.0,65.4,28.85,SE,132,3.1,3.1,72,0.00,,---,0.00,VWS V14.01,2013-07-21 05:29:00,
2013-07-21 01:30:00,75.0,65.4,28.85,SE,132,0.0,3.1,72,0.00,,---,0.00,VWS V14.01,2013-07-21 05:30:00,
2013-07-21 01:31:00,75.0,65.4,28.85,SE,132,3.1,3.1,72,0.00,,---,0.00,VWS V14.01,2013-07-21 05:31:00,
2013-07-21 01:32:00,75.0,65.4,28.85,SE,132,0.0,3.6,72,0.00,,---,0.00,VWS V14.01,2013-07-21 05:32:00,
2013-07-21 01:33:00,69.8,68.0,28.88,NW,317,0.0,0.0,94,0.00,,---,0.00,VWS V14.01,2013-07-21 05:33:00,
2013-07-21 01:34:00,75.0,65.4,28.85,SE,141,3.6,4.9,72,0.00,,---,0.00,VWS V14.01,2013-07-21 05:34:00,
2013-07-21 01:35:00,75.0,65.4,28.85,SE,141,4.0,4.0,72,0.00,,---,0.00,VWS V14.01,2013-07-21 05:35:00,
2013-07-21 01:36:00,75.0,65.4,28.85,SE,141,0.0,4.0,72,0.00,,---,0.00,VWS V14.01,2013-07-21 05:36:00,
2013-07-21 01:38:00,75.0,65.4,28.85,SE,141,0.0,0.0,72,0.00,,---,0.00,VWS V14.01,2013-07-21 05:38:00,
2013-07-21 01:39:00,75.2,65.6,28.85,SE,141,0.0,0.0,72,0.00,,---,0.00,VWS V14.01,2013-07-21 05:39:00,
2013-07-21 01:40:00,75.2,65.6,28.85,SE,141,2.7,3.6,72,0.00,,---,0.00,VWS V14.01,2013-07-21 05:40:00,
2013-07-21 01:43:00,69.8,68.0,28.88,WNW,289,0.0,0.0,94,0.00,,---,0.00,VWS V14.01,2013-07-21 05:43:00,
2013-07-21 01:48:00,69.6,67.8,28.88,WNW,286,3.6,3.6,94,0.00,,---,0.00,VWS V14.01,2013-07-21 05:48:00,
2013-07-21 01:54:00,69.8,68.0,28.88,WNW,303,0.0,0.0,94,0.00,,---,0.00,VWS V14.01,2013-07-21 05:54:00,
2013-07-21 01:56:00,75.2,65.6,28.85,South,187,0.0,0.0,72,0.00,,---,0.00,VWS V14.01,2013-07-21 05:56:00,
2013-07-21 01:59:00,69.8,68.3,28.88,WNW,303,0.0,0.0,95,0.00,,---,0.00,VWS V14.01,2013-07-21 05:59:00,
2013-07-21 02:04:00,69.8,68.3,28.88,WNW,303,0.0,0.0,95,0.00,,---,0.00,VWS V14.01,2013-07-21 06:04:00,
2013-07-21 02:09:00,69.8,68.3,28.88,West,263,0.0,0.0,95,0.00,,---,0.00,VWS V14.01,2013-07-21 06:09:00,
2013-07-21 02:14:00,69.8,68.3,28.88,WNW,302,0.0,4.0,95,0.00,,---,0.00,VWS V14.01,2013-07-21 06:14:00,
2013-07-21 02:19:00,69.8,68.3,28.88,WSW,254,0.0,0.0,95,0.00,,---,0.00,VWS V14.01,2013-07-21 06:19:00,
2013-07-21 02:24:00,69.8,68.3,28.88,WSW,255,0.0,0.0,95,0.00,,---,0.00,VWS V14.01,2013-07-21 06:24:00,
2013-07-21 02:29:00,69.8,68.3,28.88,West,269,0.0,0.0,95,0.00,,---,0.00,VWS V14.01,2013-07-21 06:29:00,
2013-07-21 02:34:00,69.8,68.3,28.88,WNW,290,0.0,0.0,95,0.00,,---,0.00,VWS V14.01,2013-07-21 06:34:00,
2013-07-21 02:39:00,69.8,68.3,28.88,WNW,290,0.0,0.0,95,0.00,,---,0.00,VWS V14.01,2013-07-21 06:39:00,
2013-07-21 02:44:00,69.6,68.1,28.88,WNW,290,0.0,0.0,95,0.00,,---,0.00,VWS V14.01,2013-07-21 06:44:00,
2013-07-21 02:49:00,69.6,68.1,28.88,WNW,290,0.0,0.0,95,0.00,,---,0.00,VWS V14.01,2013-07-21 06:49:00,
2013-07-21 02:54:00,69.6,68.1,28.88,WNW,290,0.0,0.0,95,0.00,,---,0.00,VWS V14.01,2013-07-21 06:54:00,
2013-07-21 02:59:00,69.4,67.9,28.88,WNW,290,0.0,0.0,95,0.00,,---,0.00,VWS V14.01,2013-07-21 06:59:00,
2013-07-21 03:04:00,69.4,67.9,28.88,WNW,290,0.0,0.0,95,0.00,,---,0.00,VWS V14.01,2013-07-21 07:04:00,
2013-07-21 03:09:00,69.4,67.9,28.88,WNW,290,0.0,0.0,95,0.00,,---,0.00,VWS V14.01,2013-07-21 07:09:00,
2013-07-21 03:14:00,69.4,67.9,28.88,WNW,290,0.0,0.0,95,0.00,,---,0.00,VWS V14.01,2013-07-21 07:14:00,
2013-07-21 03:19:00,69.3,67.8,28.88,WNW,290,0.0,0.0,95,0.00,,---,0.00,VWS V14.01,2013-07-21 07:19:00,
2013-07-21 03:24:00,69.4,67.9,28.88,WNW,290,0.0,0.0,95,0.00,,---,0.00,VWS V14.01,2013-07-21 07:24:00,
2013-07-21 03:29:00,69.3,67.8,28.88,WNW,290,0.0,0.0,95,0.00,,---,0.00,VWS V14.01,2013-07-21 07:29:00,
2013-07-21 03:34:00,69.3,67.8,28.88,WNW,290,0.0,0.0,95,0.00,,---,0.00,VWS V14.01,2013-07-21 07:34:00,
2013-07-21 03:39:00,69.4,67.9,28.88,WNW,290,0.0,0.0,95,0.00,,---,0.00,VWS V14.01,2013-07-21 07:39:00,
2013-07-21 03:44:00,69.3,67.8,28.88,WNW,290,0.0,0.0,95,0.00,,---,0.00,VWS V14.01,2013-07-21 07:44:00,
2013-07-21 03:49:00,69.1,67.6,28.88,WNW,290,0.0,0.0,95,0.00,,---,0.00,VWS V14.01,2013-07-21 07:49:00,
2013-07-21 03:54:00,68.9,67.7,28.88,WNW,290,0.0,0.0,96,0.00,,---,0.00,VWS V14.01,2013-07-21 07:54:00,
2013-07-21 03:59:00,68.7,67.5,28.88,WNW,290,0.0,0.0,96,0.00,,---,0.00,VWS V14.01,2013-07-21 07:59:00,
2013-07-21 04:04:00,68.7,67.5,28.88,WNW,290,0.0,0.0,96,0.00,,---,0.00,VWS V14.01,2013-07-21 08:04:00,
2013-07-21 04:09:00,68.7,67.5,28.88,WNW,290,0.0,0.0,96,0.00,,---,0.00,VWS V14.01,2013-07-21 08:09:00,
2013-07-21 04:14:00,68.5,67.4,28.88,WNW,290,0.0,0.0,96,0.00,,---,0.00,VWS V14.01,2013-07-21 08:14:00,
2013-07-21 04:19:00,68.5,67.4,28.88,WNW,290,0.0,0.0,96,0.00,,---,0.00,VWS V14.01,2013-07-21 08:19:00,
2013-07-21 04:20:00,70.5,69.0,28.82,WSW,257,3.6,3.6,95,0.08,,---,0.59,VWS V14.01,2013-07-21 08:20:00,
2013-07-21 04:24:00,68.5,67.4,28.88,WNW,291,0.0,0.0,96,0.00,,---,0.00,VWS V14.01,2013-07-21 08:24:00,
2013-07-21 04:25:00,70.5,69.0,28.82,SE,124,0.0,6.7,95,0.16,,---,0.67,VWS V14.01,2013-07-21 08:25:00,
2013-07-21 04:26:00,70.5,69.0,28.82,NW,317,2.7,4.5,95,0.20,,---,0.71,VWS V14.01,2013-07-21 08:26:00,
2013-07-21 04:29:00,68.7,67.5,28.88,WNW,291,0.0,0.0,96,0.00,,---,0.00,VWS V14.01,2013-07-21 08:29:00,
2013-07-21 04:33:00,69.8,68.3,28.85,SE,129,0.0,4.0,95,0.39,,---,0.91,VWS V14.01,2013-07-21 08:33:00,
2013-07-21 04:34:00,68.7,67.5,28.88,WNW,291,0.0,0.0,96,0.00,,---,0.00,VWS V14.01,2013-07-21 08:34:00,
2013-07-21 04:35:00,70.0,68.5,28.85,ESE,111,4.0,4.0,95,0.47,,---,0.98,VWS V14.01,2013-07-21 08:35:00,
2013-07-21 04:36:00,69.8,68.3,28.85,East,84,3.1,4.0,95,0.47,,---,0.98,VWS V14.01,2013-07-21 08:36:00,
2013-07-21 04:38:00,69.8,68.3,28.85,East,84,0.0,0.0,95,0.51,,---,1.02,VWS V14.01,2013-07-21 08:38:00,
2013-07-21 04:39:00,68.5,67.4,28.88,WNW,291,0.0,0.0,96,0.00,,---,0.00,VWS V14.01,2013-07-21 08:39:00,
2013-07-21 04:44:00,68.4,67.2,28.88,WNW,291,0.0,0.0,96,0.00,,---,0.00,VWS V14.01,2013-07-21 08:44:00,
2013-07-21 04:45:00,69.8,68.3,28.82,East,88,0.0,0.0,95,0.43,,---,1.02,VWS V14.01,2013-07-21 08:45:00,
2013-07-21 04:46:00,69.8,68.3,28.82,East,88,0.0,0.0,95,0.43,,---,1.02,VWS V14.01,2013-07-21 08:46:00,
2013-07-21 04:48:00,69.8,68.3,28.82,East,88,0.0,2.7,95,0.43,,---,1.02,VWS V14.01,2013-07-21 08:48:00,
2013-07-21 04:49:00,68.2,67.0,28.88,WNW,291,0.0,0.0,96,0.00,,---,0.00,VWS V14.01,2013-07-21 08:49:00,
2013-07-21 04:53:00,69.4,67.9,28.82,East,90,0.0,3.6,95,0.43,,---,1.02,VWS V14.01,2013-07-21 08:53:00,
2013-07-21 04:54:00,68.2,67.0,28.88,WNW,291,0.0,0.0,96,0.00,,---,0.00,VWS V14.01,2013-07-21 08:54:00,
2013-07-21 04:55:00,69.4,67.9,28.82,ENE,70,3.6,4.0,95,0.43,,---,1.02,VWS V14.01,2013-07-21 08:55:00,
2013-07-21 04:59:00,68.2,67.0,28.88,WNW,291,0.0,0.0,96,0.00,,---,0.00,VWS V14.01,2013-07-21 08:59:00,
2013-07-21 05:01:00,68.9,67.4,28.82,East,79,4.5,5.4,95,0.43,,---,1.02,VWS V14.01,2013-07-21 09:01:00,
2013-07-21 05:02:00,68.9,67.4,28.82,East,81,4.0,6.3,95,0.43,,---,1.02,VWS V14.01,2013-07-21 09:02:00,
2013-07-21 05:04:00,68.2,67.0,28.88,WNW,291,0.0,0.0,96,0.00,,---,0.00,VWS V14.01,2013-07-21 09:04:00,
2013-07-21 05:05:00,69.1,67.6,28.82,NE,45,0.0,6.3,95,0.43,,---,1.02,VWS V14.01,2013-07-21 09:05:00,
2013-07-21 05:09:00,68.5,67.4,28.88,WNW,291,0.0,0.0,96,0.00,,---,0.00,VWS V14.01,2013-07-21 09:09:00,
2013-07-21 05:10:00,69.1,67.6,28.82,NE,52,0.0,0.0,95,0.43,,---,1.02,VWS V14.01,2013-07-21 09:10:00,
2013-07-21 05:11:00,69.1,67.6,28.82,NE,52,0.0,0.0,95,0.43,,---,1.02,VWS V14.01,2013-07-21 09:11:00,
2013-07-21 05:14:00,68.7,67.5,28.88,WNW,291,0.0,0.0,96,0.00,,---,0.00,VWS V14.01,2013-07-21 09:14:00,
2013-07-21 05:15:00,69.1,67.6,28.82,NE,52,0.0,0.0,95,0.43,,---,1.02,VWS V14.01,2013-07-21 09:15:00,
2013-07-21 05:16:00,69.1,67.6,28.82,NW,310,0.0,0.0,95,0.43,,---,1.02,VWS V14.01,2013-07-21 09:16:00,
2013-07-21 05:18:00,69.1,67.6,28.82,NW,311,0.0,0.0,95,0.43,,---,1.02,VWS V14.01,2013-07-21 09:18:00,
2013-07-21 05:19:00,68.9,67.7,28.88,East,87,2.7,3.1,96,0.00,,---,0.00,VWS V14.01,2013-07-21 09:19:00,
2013-07-21 05:20:00,69.3,67.8,28.82,NNW,330,4.0,6.9,95,0.43,,---,1.02,VWS V14.01,2013-07-21 09:20:00,
2013-07-21 05:22:00,69.3,67.8,28.82,West,281,0.0,4.5,95,0.43,,---,1.02,VWS V14.01,2013-07-21 09:22:00,
2013-07-21 05:24:00,69.1,67.9,28.88,East,88,0.0,3.6,96,0.00,,---,0.00,VWS V14.01,2013-07-21 09:24:00,
2013-07-21 05:28:00,69.1,67.6,28.82,NNE,13,0.0,2.7,95,0.28,,---,1.02,VWS V14.01,2013-07-21 09:28:00,
2013-07-21 05:29:00,69.1,67.9,28.88,ESE,110,4.0,5.8,96,0.00,,---,0.00,VWS V14.01,2013-07-21 09:29:00,
2013-07-21 05:31:00,69.3,67.8,28.82,ENE,75,0.0,3.1,95,0.24,,---,1.02,VWS V14.01,2013-07-21 09:31:00,
2013-07-21 05:33:00,69.1,67.6,28.82,ENE,66,6.9,6.9,95,0.16,,---,1.02,VWS V14.01,2013-07-21 09:33:00,
2013-07-21 05:34:00,68.9,67.7,28.88,East,97,4.0,4.5,96,0.00,,---,0.00,VWS V14.01,2013-07-21 09:34:00,
2013-07-21 05:35:00,69.1,67.6,28.82,ENE,60,3.6,5.8,95,0.08,,---,1.02,VWS V14.01,2013-07-21 09:35:00,
2013-07-21 05:36:00,69.1,67.9,28.82,East,80,3.1,5.4,96,0.04,,---,1.02,VWS V14.01,2013-07-21 09:36:00,
2013-07-21 05:37:00,69.1,67.9,28.82,ENE,68,2.7,4.9,96,0.04,,---,1.02,VWS V14.01,2013-07-21 09:37:00,
2013-07-21 05:38:00,69.1,67.9,28.82,ENE,57,2.7,6.7,96,0.04,,---,1.02,VWS V14.01,2013-07-21 09:38:00,
2013-07-21 05:39:00,68.9,67.7,28.88,ESE,110,2.7,4.0,96,0.00,,---,0.00,VWS V14.01,2013-07-21 09:39:00,
2013-07-21 05:40:00,68.9,67.7,28.82,East,98,6.3,7.8,96,0.00,,---,1.02,VWS V14.01,2013-07-21 09:40:00,
2013-07-21 05:41:00,68.7,67.5,28.82,NE,46,5.8,6.3,96,0.00,,---,1.02,VWS V14.01,2013-07-21 09:41:00,
2013-07-21 05:42:00,68.7,67.5,28.82,ENE,69,6.3,6.3,96,0.00,,---,1.02,VWS V14.01,2013-07-21 09:42:00,
2013-07-21 05:44:00,68.7,67.5,28.88,ESE,117,0.0,4.5,96,0.00,,---,0.00,VWS V14.01,2013-07-21 09:44:00,
2013-07-21 05:49:00,68.5,67.4,28.88,SE,126,6.9,6.9,96,0.00,,---,0.00,VWS V14.01,2013-07-21 09:49:00,
2013-07-21 05:54:00,68.5,67.4,28.88,SSE,147,3.6,4.0,96,0.00,,---,0.00,VWS V14.01,2013-07-21 09:54:00,
2013-07-21 05:55:00,68.0,66.8,28.82,ENE,62,6.3,6.3,96,0.00,,---,1.02,VWS V14.01,2013-07-21 09:55:00,
2013-07-21 05:56:00,68.0,66.8,28.82,East,80,4.5,6.3,96,0.00,,---,1.02,VWS V14.01,2013-07-21 09:56:00,
2013-07-21 05:59:00,68.5,67.4,28.88,SE,131,4.9,5.4,96,0.00,,---,0.00,VWS V14.01,2013-07-21 09:59:00,
2013-07-21 06:04:00,68.5,67.4,28.88,ESE,112,2.7,4.0,96,0.00,,---,0.00,VWS V14.01,2013-07-21 10:04:00,
2013-07-21 06:06:00,67.5,66.3,28.82,SE,140,4.0,5.4,96,0.00,,---,1.02,VWS V14.01,2013-07-21 10:06:00,
2013-07-21 06:09:00,68.5,67.4,28.88,ESE,114,0.0,3.1,96,0.00,,---,0.00,VWS V14.01,2013-07-21 10:09:00,
2013-07-21 06:10:00,67.3,66.1,28.82,ENE,72,0.0,0.0,96,0.00,,---,1.02,VWS V14.01,2013-07-21 10:10:00,
2013-07-21 06:14:00,68.5,67.4,28.88,East,99,0.0,0.0,96,0.00,,---,0.00,VWS V14.01,2013-07-21 10:14:00,
2013-07-21 06:17:00,67.1,65.9,28.82,ESE,121,0.0,0.0,96,0.00,,---,1.02,VWS V14.01,2013-07-21 10:17:00,
2013-07-21 06:19:00,68.5,67.4,28.88,SE,125,0.0,0.0,96,0.00,,---,0.00,VWS V14.01,2013-07-21 10:19:00,
2013-07-21 06:22:00,67.1,65.9,28.82,ESE,121,0.0,0.0,96,0.00,,---,1.02,VWS V14.01,2013-07-21 10:22:00,
2013-07-21 06:23:00,67.1,66.2,28.82,ESE,121,0.0,0.0,97,0.00,,---,1.02,VWS V14.01,2013-07-21 10:23:00,
2013-07-21 06:24:00,68.5,67.4,28.88,SE,124,0.0,0.0,96,0.00,,---,0.00,VWS V14.01,2013-07-21 10:24:00,
2013-07-21 06:29:00,68.5,67.4,28.88,ESE,107,0.0,0.0,96,0.00,,---,0.00,VWS V14.01,2013-07-21 10:29:00,
2013-07-21 06:34:00,68.5,67.4,28.88,SE,141,0.0,0.0,96,0.00,,---,0.00,VWS V14.01,2013-07-21 10:34:00,
2013-07-21 06:39:00,68.5,67.4,28.88,SE,131,0.0,0.0,96,0.00,,---,0.00,VWS V14.01,2013-07-21 10:39:00,
2013-07-21 06:44:00,68.7,67.5,28.88,SE,131,0.0,0.0,96,0.00,,---,0.00,VWS V14.01,2013-07-21 10:44:00,
2013-07-21 06:49:00,68.7,67.5,28.91,SE,131,0.0,0.0,96,0.00,,---,0.00,VWS V14.01,2013-07-21 10:49:00,
2013-07-21 06:54:00,68.7,67.5,28.91,SE,131,0.0,0.0,96,0.00,,---,0.00,VWS V14.01,2013-07-21 10:54:00,
2013-07-21 06:59:00,68.9,67.7,28.91,SE,131,0.0,0.0,96,0.00,,---,0.00,VWS V14.01,2013-07-21 10:59:00,
2013-07-21 07:04:00,68.9,67.7,28.91,SE,131,0.0,0.0,96,0.00,,---,0.00,VWS V14.01,2013-07-21 11:04:00,
2013-07-21 07:09:00,68.9,67.7,28.91,SE,131,0.0,0.0,96,0.00,,---,0.00,VWS V14.01,2013-07-21 11:09:00,
2013-07-21 07:14:00,69.1,67.9,28.91,SE,131,0.0,0.0,96,0.00,,---,0.00,VWS V14.01,2013-07-21 11:14:00,
2013-07-21 07:19:00,69.3,68.1,28.91,SE,131,0.0,0.0,96,0.00,,---,0.00,VWS V14.01,2013-07-21 11:19:00,
2013-07-21 07:24:00,69.4,68.2,28.91,SE,131,0.0,0.0,96,0.00,,---,0.00,VWS V14.01,2013-07-21 11:24:00,
2013-07-21 07:30:00,69.6,68.4,28.91,SE,131,0.0,0.0,96,0.00,,---,0.00,VWS V14.01,2013-07-21 11:30:00,
2013-07-21 07:36:00,69.8,68.6,28.91,SE,131,0.0,0.0,96,0.00,,---,0.00,VWS V14.01,2013-07-21 11:36:00,
2013-07-21 07:41:00,70.0,68.8,28.91,SE,131,0.0,0.0,96,0.00,,---,0.00,VWS V14.01,2013-07-21 11:41:00,
2013-07-21 07:46:00,70.2,69.0,28.91,East,90,0.0,0.0,96,0.00,,---,0.00,VWS V14.01,2013-07-21 11:46:00,
2013-07-21 07:51:00,70.2,69.0,28.91,ESE,106,0.0,0.0,96,0.00,,---,0.00,VWS V14.01,2013-07-21 11:51:00,
2013-07-21 07:57:00,70.2,69.0,28.91,ESE,106,0.0,0.0,96,0.00,,---,0.00,VWS V14.01,2013-07-21 11:57:00,
2013-07-21 08:02:00,70.3,69.2,28.91,ESE,106,0.0,0.0,96,0.00,,---,0.00,VWS V14.01,2013-07-21 12:02:00,
2013-07-21 08:07:00,70.9,69.7,28.91,ESE,106,0.0,0.0,96,0.00,,---,0.00,VWS V14.01,2013-07-21 12:07:00,
2013-07-21 08:12:00,71.2,70.1,28.91,SE,125,0.0,0.0,96,0.00,,---,0.00,VWS V14.01,2013-07-21 12:12:00,
2013-07-21 08:19:00,73.0,71.5,28.91,ESE,111,0.0,0.0,95,0.00,,---,0.00,VWS V14.01,2013-07-21 12:19:00,
2013-07-21 08:26:00,78.4,76.6,28.91,ESE,111,0.0,0.0,94,0.00,,---,0.00,VWS V14.01,2013-07-21 12:26:00,
2013-07-21 08:32:00,79.7,78.2,28.91,ESE,111,0.0,0.0,95,0.00,,---,0.00,VWS V14.01,2013-07-21 12:32:00,
2013-07-21 08:38:00,79.7,78.2,28.91,ESE,108,3.1,4.0,95,0.00,,---,0.00,VWS V14.01,2013-07-21 12:38:00,
2013-07-21 08:45:00,78.6,76.4,28.91,ESE,104,0.0,0.0,93,0.00,,---,0.00,VWS V14.01,2013-07-21 12:45:00,
2013-07-21 08:50:00,79.3,76.5,28.91,ESE,105,0.0,0.0,91,0.00,,---,0.00,VWS V14.01,2013-07-21 12:50:00,
2013-07-21 08:55:00,79.5,71.7,28.91,East,100,0.0,0.0,77,0.00,,---,0.00,VWS V14.01,2013-07-21 12:55:00,
2013-07-21 09:05:00,78.3,60.3,28.91,SE,132,0.0,0.0,54,0.00,,---,0.00,VWS V14.01,2013-07-21 13:05:00,
2013-07-21 09:10:00,77.9,61.5,28.91,ESE,112,0.0,0.0,57,0.00,,---,0.00,VWS V14.01,2013-07-21 13:10:00,
2013-07-21 09:17:00,77.7,63.7,28.91,ENE,71,0.0,0.0,62,0.00,,---,0.00,VWS V14.01,2013-07-21 13:17:00,
2013-07-21 09:24:00,77.7,65.0,28.91,East,92,0.0,0.0,65,0.00,,---,0.00,VWS V14.01,2013-07-21 13:24:00,
2013-07-21 09:29:00,77.5,63.5,28.91,ESE,116,0.0,0.0,62,0.00,,---,0.00,VWS V14.01,2013-07-21 13:29:00,
2013-07-21 09:34:00,77.5,63.5,28.91,East,90,0.0,0.0,62,0.00,,---,0.00,VWS V14.01,2013-07-21 13:34:00,
2013-07-21 09:41:00,78.3,64.6,28.91,SE,129,0.0,0.0,63,0.00,,---,0.00,VWS V14.01,2013-07-21 13:41:00,
2013-07-21 09:46:00,78.4,64.3,28.94,East,90,0.0,0.0,62,0.00,,---,0.00,VWS V14.01,2013-07-21 13:46:00,
2013-07-21 09:54:00,78.4,63.4,28.94,ESE,102,0.0,0.0,60,0.00,,---,0.00,VWS V14.01,2013-07-21 13:54:00,
2013-07-21 09:59:00,79.0,63.0,28.94,SE,132,0.0,0.0,58,0.00,,---,0.00,VWS V14.01,2013-07-21 13:59:00,
2013-07-21 10:04:00,79.7,61.6,28.94,ESE,121,0.0,4.9,54,0.00,,---,0.00,VWS V14.01,2013-07-21 14:04:00,
2013-07-21 10:09:00,80.2,62.1,28.94,ESE,116,0.0,4.0,54,0.00,,---,0.00,VWS V14.01,2013-07-21 14:09:00,
2013-07-21 10:14:00,81.0,60.6,28.94,East,101,2.7,3.6,50,0.00,,---,0.00,VWS V14.01,2013-07-21 14:14:00,
2013-07-21 10:19:00,82.0,61.6,28.94,East,80,0.0,3.1,50,0.00,,---,0.00,VWS V14.01,2013-07-21 14:19:00,
2013-07-21 10:24:00,81.9,58.5,28.94,ESE,113,3.1,4.5,45,0.00,,---,0.00,VWS V14.01,2013-07-21 14:24:00,
2013-07-21 10:29:00,82.4,57.0,28.94,East,93,3.1,4.5,42,0.00,,---,0.00,VWS V14.01,2013-07-21 14:29:00,
2013-07-21 10:34:00,82.9,56.8,28.94,SE,137,0.0,3.1,41,0.00,,---,0.00,VWS V14.01,2013-07-21 14:34:00,
2013-07-21 10:39:00,83.3,56.5,28.94,East,94,4.0,5.4,40,0.00,,---,0.00,VWS V14.01,2013-07-21 14:39:00,
2013-07-21 10:44:00,84.0,57.1,28.94,ENE,58,4.0,4.9,40,0.00,,---,0.00,VWS V14.01,2013-07-21 14:44:00,
2013-07-21 10:49:00,84.0,55.0,28.94,WSW,243,4.0,4.9,37,0.00,,---,0.00,VWS V14.01,2013-07-21 14:49:00,
2013-07-21 10:54:00,85.1,56.7,28.94,ESE,114,6.3,6.3,38,0.00,,---,0.00,VWS V14.01,2013-07-21 14:54:00,
2013-07-21 10:59:00,85.3,56.1,28.94,South,169,2.7,3.1,37,0.00,,---,0.00,VWS V14.01,2013-07-21 14:59:00,
2013-07-21 11:04:00,86.5,57.2,28.94,ESE,120,4.0,7.8,37,0.00,,---,0.00,VWS V14.01,2013-07-21 15:04:00,
2013-07-21 11:09:00,87.1,56.1,28.94,NE,55,3.1,5.4,35,0.00,,---,0.00,VWS V14.01,2013-07-21 15:09:00,
2013-07-21 11:14:00,86.7,52.5,28.94,SSW,208,0.0,3.6,31,0.00,,---,0.00,VWS V14.01,2013-07-21 15:14:00,
2013-07-21 11:19:00,87.3,53.0,28.94,SSE,156,3.1,4.0,31,0.00,,---,0.00,VWS V14.01,2013-07-21 15:19:00,
2013-07-21 11:24:00,87.6,52.4,28.94,ENE,66,4.0,4.5,30,0.00,,---,0.00,VWS V14.01,2013-07-21 15:24:00,
2013-07-21 11:29:00,88.7,54.2,28.94,SE,140,0.0,0.0,31,0.00,,---,0.00,VWS V14.01,2013-07-21 15:29:00,
2013-07-21 11:34:00,89.2,53.8,28.94,ENE,67,0.0,0.0,30,0.00,,---,0.00,VWS V14.01,2013-07-21 15:34:00,
2013-07-21 11:39:00,88.9,52.5,28.94,ESE,123,5.4,6.7,29,0.00,,---,0.00,VWS V14.01,2013-07-21 15:39:00,
2013-07-21 11:44:00,90.0,55.3,28.94,ENE,77,0.0,0.0,31,0.00,,---,0.00,VWS V14.01,2013-07-21 15:44:00,
2013-07-21 11:49:00,89.6,52.2,28.94,ENE,71,3.1,6.3,28,0.00,,---,0.00,VWS V14.01,2013-07-21 15:49:00,
2013-07-21 11:54:00,89.6,53.2,28.94,SE,129,3.6,3.6,29,0.00,,---,0.00,VWS V14.01,2013-07-21 15:54:00,
2013-07-21 11:59:00,89.8,54.2,28.94,ENE,71,0.0,3.1,30,0.00,,---,0.00,VWS V14.01,2013-07-21 15:59:00,
2013-07-21 12:04:00,90.3,53.8,28.94,ESE,119,6.7,6.9,29,0.00,,---,0.00,VWS V14.01,2013-07-21 16:04:00,
2013-07-21 12:09:00,90.0,51.5,28.94,South,175,0.0,3.1,27,0.00,,---,0.00,VWS V14.01,2013-07-21 16:09:00,
2013-07-21 12:14:00,91.4,54.7,28.94,East,93,0.0,0.0,29,0.00,,---,0.00,VWS V14.01,2013-07-21 16:14:00,
2013-07-21 12:19:00,91.0,53.4,28.94,ESE,112,0.0,0.0,28,0.00,,---,0.00,VWS V14.01,2013-07-21 16:19:00,
2013-07-21 12:24:00,91.0,52.5,28.94,SE,132,0.0,3.6,27,0.00,,---,0.00,VWS V14.01,2013-07-21 16:24:00,
2013-07-21 12:30:00,90.9,52.3,28.94,East,98,5.4,5.4,27,0.00,,---,0.00,VWS V14.01,2013-07-21 16:30:00,
2013-07-21 12:35:00,92.5,51.6,28.94,ESE,113,2.7,4.5,25,0.00,,---,0.00,VWS V14.01,2013-07-21 16:35:00,
2013-07-21 12:40:00,92.7,49.5,28.94,WNW,285,3.6,3.6,23,0.00,,---,0.00,VWS V14.01,2013-07-21 16:40:00,
2013-07-21 12:45:00,92.3,53.5,28.91,WSW,243,0.0,0.0,27,0.00,,---,0.00,VWS V14.01,2013-07-21 16:45:00,
2013-07-21 12:50:00,92.1,47.8,28.91,SE,140,4.9,6.3,22,0.00,,---,0.00,VWS V14.01,2013-07-21 16:50:00,
2013-07-21 12:56:00,92.7,47.1,28.91,East,83,4.9,5.8,21,0.00,,---,0.00,VWS V14.01,2013-07-21 16:56:00,
2013-07-21 13:01:00,93.7,52.6,28.91,SE,135,3.1,3.6,25,0.00,,---,0.00,VWS V14.01,2013-07-21 17:01:00,
2013-07-21 13:06:00,92.8,45.9,28.91,East,88,3.6,4.5,20,0.00,,---,0.00,VWS V14.01,2013-07-21 17:06:00,
2013-07-21 13:11:00,93.0,46.1,28.91,East,93,2.7,4.0,20,0.00,,---,0.00,VWS V14.01,2013-07-21 17:11:00,
2013-07-21 13:16:00,93.9,48.1,28.91,WSW,252,0.0,0.0,21,0.00,,---,0.00,VWS V14.01,2013-07-21 17:16:00,
2013-07-21 13:21:00,93.4,47.7,28.91,East,91,3.1,4.5,21,0.00,,---,0.00,VWS V14.01,2013-07-21 17:21:00,
2013-07-21 13:26:00,94.1,45.6,28.91,SE,135,0.0,5.8,19,0.00,,---,0.00,VWS V14.01,2013-07-21 17:26:00,
2013-07-21 13:31:00,93.7,48.0,28.91,NNE,23,0.0,3.1,21,0.00,,---,0.00,VWS V14.01,2013-07-21 17:31:00,
2013-07-21 13:36:00,93.9,46.8,28.91,SE,139,4.9,5.8,20,0.00,,---,0.00,VWS V14.01,2013-07-21 17:36:00,
2013-07-21 13:41:00,92.3,45.5,28.91,ENE,58,0.0,5.8,20,0.00,,---,0.00,VWS V14.01,2013-07-21 17:41:00,
2013-07-21 13:46:00,91.9,45.2,28.91,ESE,109,2.7,3.6,20,0.00,,---,0.00,VWS V14.01,2013-07-21 17:46:00,
2013-07-21 13:51:00,92.8,45.9,28.91,East,91,2.7,3.1,20,0.00,,---,0.00,VWS V14.01,2013-07-21 17:51:00,
2013-07-21 13:56:00,92.8,44.6,28.91,SE,145,4.9,4.9,19,0.00,,---,0.00,VWS V14.01,2013-07-21 17:56:00,
2013-07-21 14:01:00,91.8,51.0,28.91,NNE,21,3.6,4.9,25,0.00,,---,0.00,VWS V14.01,2013-07-21 18:01:00,
2013-07-21 14:06:00,90.9,52.3,28.91,NNW,347,0.0,0.0,27,0.00,,---,0.00,VWS V14.01,2013-07-21 18:06:00,
2013-07-21 14:11:00,90.7,49.0,28.91,ESE,110,0.0,4.5,24,0.00,,---,0.00,VWS V14.01,2013-07-21 18:11:00,
2013-07-21 14:16:00,89.8,52.4,28.91,ESE,120,0.0,0.0,28,0.00,,---,0.00,VWS V14.01,2013-07-21 18:16:00,
2013-07-21 14:21:00,89.2,51.9,28.91,ESE,113,4.5,4.9,28,0.00,,---,0.00,VWS V14.01,2013-07-21 18:21:00,
2013-07-21 14:26:00,89.1,51.8,28.91,ESE,123,0.0,3.6,28,0.00,,---,0.00,VWS V14.01,2013-07-21 18:26:00,
2013-07-21 14:31:00,88.7,52.4,28.91,ESE,116,0.0,0.0,29,0.00,,---,0.00,VWS V14.01,2013-07-21 18:31:00,
2013-07-21 14:36:00,88.3,52.1,28.91,ENE,78,0.0,0.0,29,0.00,,---,0.00,VWS V14.01,2013-07-21 18:36:00,
2013-07-21 14:41:00,88.3,52.1,28.91,East,85,0.0,0.0,29,0.00,,---,0.00,VWS V14.01,2013-07-21 18:41:00,
2013-07-21 14:46:00,88.3,52.1,28.91,East,85,0.0,0.0,29,0.00,,---,0.00,VWS V14.01,2013-07-21 18:46:00,
2013-07-21 14:51:00,88.9,52.5,28.91,ESE,103,4.5,4.5,29,0.00,,---,0.00,VWS V14.01,2013-07-21 18:51:00,
2013-07-21 14:56:00,89.6,50.2,28.91,ESE,121,4.5,6.9,26,0.00,,---,0.00,VWS V14.01,2013-07-21 18:56:00,
2013-07-21 15:01:00,89.4,51.1,28.91,ESE,103,0.0,2.7,27,0.00,,---,0.00,VWS V14.01,2013-07-21 19:01:00,
2013-07-21 15:06:00,88.9,50.6,28.91,SE,138,3.1,4.0,27,0.00,,---,0.00,VWS V14.01,2013-07-21 19:06:00,
2013-07-21 15:11:00,88.0,50.8,28.91,ESE,109,6.7,6.7,28,0.00,,---,0.00,VWS V14.01,2013-07-21 19:11:00,
2013-07-21 15:16:00,87.8,50.7,28.91,ESE,112,4.9,6.9,28,0.00,,---,0.00,VWS V14.01,2013-07-21 19:16:00,
2013-07-21 15:21:00,87.4,50.4,28.91,SE,141,2.7,3.1,28,0.00,,---,0.00,VWS V14.01,2013-07-21 19:21:00,
2013-07-21 15:26:00,87.8,51.6,28.91,SSE,151,0.0,3.6,29,0.00,,---,0.00,VWS V14.01,2013-07-21 19:26:00,
2013-07-21 15:31:00,87.8,50.7,28.91,South,171,0.0,0.0,28,0.00,,---,0.00,VWS V14.01,2013-07-21 19:31:00,
2013-07-21 15:36:00,88.9,51.6,28.91,WSW,240,0.0,0.0,28,0.00,,---,0.00,VWS V14.01,2013-07-21 19:36:00,
2013-07-21 15:41:00,89.6,51.2,28.91,East,100,4.0,6.3,27,0.00,,---,0.00,VWS V14.01,2013-07-21 19:41:00,
2013-07-21 15:46:00,89.6,51.2,28.91,SE,131,5.4,7.4,27,0.00,,---,0.00,VWS V14.01,2013-07-21 19:46:00,
2013-07-21 15:51:00,89.6,51.2,28.91,East,89,3.1,5.8,27,0.00,,---,0.00,VWS V14.01,2013-07-21 19:51:00,
2013-07-21 15:56:00,90.5,49.9,28.91,SSE,152,0.0,5.4,25,0.00,,---,0.00,VWS V14.01,2013-07-21 19:56:00,
2013-07-21 16:01:00,90.9,45.6,28.88,SE,131,2.7,4.5,21,0.00,,---,0.00,VWS V14.01,2013-07-21 20:01:00,
2013-07-21 16:06:00,91.9,45.2,28.88,SSE,147,4.9,6.9,20,0.00,,---,0.00,VWS V14.01,2013-07-21 20:06:00,
2013-07-21 16:11:00,91.8,47.5,28.88,SW,223,0.0,2.7,22,0.00,,---,0.00,VWS V14.01,2013-07-21 20:11:00,
2013-07-21 16:14:00,88.5,54.1,28.76,NE,40,0.0,0.0,31,0.00,,---,1.10,VWS V14.01,2013-07-21 20:14:00,
2013-07-21 16:15:00,88.5,53.2,28.76,NE,40,0.0,0.0,30,0.00,,---,1.10,VWS V14.01,2013-07-21 20:15:00,
2013-07-21 16:16:00,91.4,44.7,28.88,East,92,5.8,6.7,20,0.00,,---,0.00,VWS V14.01,2013-07-21 20:16:00,
2013-07-21 16:17:00,88.3,52.1,28.76,NE,40,0.0,0.0,29,0.00,,---,1.10,VWS V14.01,2013-07-21 20:17:00,
2013-07-21 16:18:00,88.3,52.1,28.76,East,91,0.0,0.0,29,0.00,,---,1.10,VWS V14.01,2013-07-21 20:18:00,
2013-07-21 16:19:00,88.2,51.9,28.76,East,91,0.0,0.0,29,0.00,,---,1.10,VWS V14.01,2013-07-21 20:19:00,
2013-07-21 16:20:00,88.2,51.9,28.76,NNE,19,0.0,2.7,29,0.00,,---,1.10,VWS V14.01,2013-07-21 20:20:00,
2013-07-21 16:21:00,91.0,45.7,28.88,SE,131,0.0,4.5,21,0.00,,---,0.00,VWS V14.01,2013-07-21 20:21:00,
2013-07-21 16:22:00,87.3,51.2,28.76,NNE,33,0.0,2.7,29,0.00,,---,1.10,VWS V14.01,2013-07-21 20:22:00,
2013-07-21 16:23:00,87.1,51.9,28.76,NNE,33,0.0,0.0,30,0.00,,---,1.10,VWS V14.01,2013-07-21 20:23:00,
2013-07-21 16:24:00,87.3,53.0,28.76,NNE,22,0.0,0.0,31,0.00,,---,1.10,VWS V14.01,2013-07-21 20:24:00,
2013-07-21 16:25:00,87.3,52.1,28.76,SE,133,0.0,0.0,30,0.00,,---,1.10,VWS V14.01,2013-07-21 20:25:00,
2013-07-21 16:26:00,91.6,47.4,28.88,NE,55,4.9,6.7,22,0.00,,---,0.00,VWS V14.01,2013-07-21 20:26:00,
2013-07-21 16:27:00,87.3,50.2,28.76,NW,319,5.8,6.7,28,0.00,,---,1.10,VWS V14.01,2013-07-21 20:27:00,
2013-07-21 16:28:00,86.9,51.8,28.76,ENE,61,2.7,7.8,30,0.00,,---,1.10,VWS V14.01,2013-07-21 20:28:00,
2013-07-21 16:29:00,87.3,53.8,28.76,NE,39,0.0,2.7,32,0.00,,---,1.10,VWS V14.01,2013-07-21 20:29:00,
2013-07-21 16:30:00,87.6,54.2,28.76,NE,39,0.0,0.0,32,0.00,,---,1.10,VWS V14.01,2013-07-21 20:30:00,
2013-07-21 16:31:00,91.9,46.5,28.88,SSE,148,0.0,3.6,21,0.00,,---,0.00,VWS V14.01,2013-07-21 20:31:00,
2013-07-21 16:32:00,88.3,53.9,28.76,SW,236,0.0,0.0,31,0.00,,---,1.10,VWS V14.01,2013-07-21 20:32:00,
2013-07-21 16:33:00,88.5,53.2,28.76,NNW,346,3.6,4.0,30,0.00,,---,1.10,VWS V14.01,2013-07-21 20:33:00,
2013-07-21 16:34:00,88.7,52.4,28.76,NNE,31,0.0,5.4,29,0.00,,---,1.10,VWS V14.01,2013-07-21 20:34:00,
2013-07-21 16:35:00,88.9,52.5,28.76,ENE,73,0.0,0.0,29,0.00,,---,1.10,VWS V14.01,2013-07-21 20:35:00,
2013-07-21 16:36:00,92.7,47.1,28.88,SW,230,2.7,3.6,21,0.00,,---,0.00,VWS V14.01,2013-07-21 20:36:00,
2013-07-21 16:37:00,89.2,52.9,28.76,NNE,22,0.0,0.0,29,0.00,,---,1.10,VWS V14.01,2013-07-21 20:37:00,
2013-07-21 16:38:00,89.4,53.0,28.76,NE,42,0.0,2.7,29,0.00,,---,1.10,VWS V14.01,2013-07-21 20:38:00,
2013-07-21 16:39:00,89.4,52.1,28.76,NE,42,0.0,0.0,28,0.00,,---,1.10,VWS V14.01,2013-07-21 20:39:00,
2013-07-21 16:40:00,89.4,52.1,28.76,NE,42,0.0,0.0,28,0.00,,---,1.10,VWS V14.01,2013-07-21 20:40:00,
2013-07-21 16:41:00,92.5,46.9,28.88,South,173,0.0,3.6,21,0.00,,---,0.00,VWS V14.01,2013-07-21 20:41:00,
2013-07-21 16:42:00,89.1,51.8,28.76,South,187,0.0,0.0,28,0.00,,---,1.10,VWS V14.01,2013-07-21 20:42:00,
2013-07-21 16:43:00,88.9,51.6,28.76,South,187,0.0,0.0,28,0.00,,---,1.10,VWS V14.01,2013-07-21 20:43:00,
2013-07-21 16:44:00,88.9,51.6,28.76,South,187,0.0,0.0,28,0.00,,---,1.10,VWS V14.01,2013-07-21 20:44:00,
2013-07-21 16:45:00,88.9,52.5,28.76,NW,311,0.0,0.0,29,0.00,,---,1.10,VWS V14.01,2013-07-21 20:45:00,
2013-07-21 16:46:00,91.2,44.6,28.88,SE,138,0.0,2.7,20,0.00,,---,0.00,VWS V14.01,2013-07-21 20:46:00,
2013-07-21 16:47:00,88.7,51.4,28.76,NNW,338,4.5,4.9,28,0.00,,---,1.10,VWS V14.01,2013-07-21 20:47:00,
2013-07-21 16:48:00,88.3,51.1,28.76,NW,322,0.0,4.9,28,0.00,,---,1.10,VWS V14.01,2013-07-21 20:48:00,
2013-07-21 16:49:00,88.2,51.9,28.76,NNE,24,4.5,4.9,29,0.00,,---,1.10,VWS V14.01,2013-07-21 20:49:00,
2013-07-21 16:50:00,90.3,46.3,28.88,SSW,207,0.0,5.8,22,0.00,,---,0.00,VWS V14.01,2013-07-21 20:50:00,
2013-07-21 16:51:00,88.0,52.7,28.76,NNE,32,0.0,4.0,30,0.00,,---,1.10,VWS V14.01,2013-07-21 20:51:00,
2013-07-21 16:52:00,88.2,51.9,28.76,SE,135,0.0,0.0,29,0.00,,---,1.10,VWS V14.01,2013-07-21 20:52:00,
2013-07-21 16:53:00,88.3,52.1,28.76,ESE,109,0.0,0.0,29,0.00,,---,1.10,VWS V14.01,2013-07-21 20:53:00,
2013-07-21 16:54:00,88.5,52.2,28.76,East,98,0.0,3.1,29,0.00,,---,1.10,VWS V14.01,2013-07-21 20:54:00,
2013-07-21 16:55:00,89.4,45.6,28.88,SSE,158,2.7,4.5,22,0.00,,---,0.00,VWS V14.01,2013-07-21 20:55:00,
2013-07-21 16:56:00,89.1,52.7,28.76,SSE,152,0.0,0.0,29,0.00,,---,1.10,VWS V14.01,2013-07-21 20:56:00,
2013-07-21 16:57:00,89.2,50.9,28.76,ESE,108,0.0,0.0,27,0.00,,---,1.10,VWS V14.01,2013-07-21 20:57:00,
2013-07-21 16:58:00,89.4,51.1,28.76,NNE,23,0.0,0.0,27,0.00,,---,1.10,VWS V14.01,2013-07-21 20:58:00,
2013-07-21 16:59:00,89.6,52.2,28.76,NNE,23,0.0,0.0,28,0.00,,---,1.10,VWS V14.01,2013-07-21 20:59:00,
2013-07-21 17:00:00,89.6,46.9,28.88,South,182,0.0,0.0,23,0.00,,---,0.00,VWS V14.01,2013-07-21 21:00:00,
2013-07-21 17:01:00,90.0,52.5,28.76,NE,42,0.0,3.1,28,0.00,,---,1.10,VWS V14.01,2013-07-21 21:01:00,
2013-07-21 17:02:00,90.1,52.7,28.76,North,351,0.0,3.1,28,0.00,,---,1.10,VWS V14.01,2013-07-21 21:02:00,
2013-07-21 17:03:00,90.1,52.7,28.76,North,4,0.0,2.7,28,0.00,,---,1.10,VWS V14.01,2013-07-21 21:03:00,
2013-07-21 17:04:00,90.3,52.8,28.76,North,4,0.0,0.0,28,0.00,,---,1.10,VWS V14.01,2013-07-21 21:04:00,
2013-07-21 17:05:00,89.6,48.1,28.88,SW,231,0.0,0.0,24,0.00,,---,0.00,VWS V14.01,2013-07-21 21:05:00,
2013-07-21 17:06:00,90.3,51.8,28.76,North,356,0.0,3.1,27,0.00,,---,1.10,VWS V14.01,2013-07-21 21:06:00,
2013-07-21 17:07:00,90.1,51.7,28.76,NW,326,0.0,2.7,27,0.00,,---,1.10,VWS V14.01,2013-07-21 21:07:00,
2013-07-21 17:08:00,89.8,51.4,28.76,North,351,2.7,5.4,27,0.00,,---,1.10,VWS V14.01,2013-07-21 21:08:00,
2013-07-21 17:09:00,89.8,52.4,28.76,North,356,0.0,2.7,28,0.00,,---,1.10,VWS V14.01,2013-07-21 21:09:00,
2013-07-21 17:10:00,89.4,50.0,28.88,SE,137,0.0,0.0,26,0.00,,---,0.00,VWS V14.01,2013-07-21 21:10:00,
2013-07-21 17:11:00,89.8,52.4,28.76,North,7,0.0,4.0,28,0.00,,---,1.10,VWS V14.01,2013-07-21 21:11:00,
2013-07-21 17:12:00,90.0,52.5,28.76,NE,43,0.0,2.7,28,0.00,,---,1.10,VWS V14.01,2013-07-21 21:12:00,
2013-07-21 17:13:00,89.6,51.2,28.76,NW,317,4.9,5.8,27,0.00,,---,1.10,VWS V14.01,2013-07-21 21:13:00,
2013-07-21 17:14:00,88.7,50.5,28.76,NNW,341,4.9,6.3,27,0.00,,---,1.10,VWS V14.01,2013-07-21 21:14:00,
2013-07-21 17:15:00,89.1,46.5,28.88,SE,129,3.1,4.9,23,0.00,,---,0.00,VWS V14.01,2013-07-21 21:15:00,
2013-07-21 17:16:00,87.6,51.5,28.76,North,351,2.7,4.5,29,0.00,,---,1.10,VWS V14.01,2013-07-21 21:16:00,
2013-07-21 17:17:00,87.1,51.0,28.76,NE,45,3.1,4.9,29,0.00,,---,1.10,VWS V14.01,2013-07-21 21:17:00,
2013-07-21 17:18:00,86.9,52.7,28.76,NE,34,0.0,3.1,31,0.00,,---,1.10,VWS V14.01,2013-07-21 21:18:00,
2013-07-21 17:19:00,86.4,51.3,28.76,NNE,17,0.0,5.8,30,0.00,,---,1.10,VWS V14.01,2013-07-21 21:19:00,
2013-07-21 17:20:00,88.0,48.8,28.88,SE,138,0.0,0.0,26,0.00,,---,0.00,VWS V14.01,2013-07-21 21:20:00,
2013-07-21 17:21:00,86.4,53.0,28.76,NNE,17,0.0,0.0,32,0.00,,---,1.10,VWS V14.01,2013-07-21 21:21:00,
2013-07-21 17:22:00,86.4,53.0,28.76,NNE,17,0.0,0.0,32,0.00,,---,1.10,VWS V14.01,2013-07-21 21:22:00,
2013-07-21 17:23:00,86.5,52.3,28.76,NNE,17,0.0,0.0,31,0.00,,---,1.10,VWS V14.01,2013-07-21 21:23:00,
2013-07-21 17:24:00,86.5,52.3,28.76,NNE,17,0.0,0.0,31,0.00,,---,1.10,VWS V14.01,2013-07-21 21:24:00,
2013-07-21 17:25:00,88.0,50.8,28.88,SSE,147,0.0,3.6,28,0.00,,---,0.00,VWS V14.01,2013-07-21 21:25:00,
2013-07-21 17:26:00,86.9,53.5,28.76,North,351,0.0,0.0,32,0.00,,---,1.10,VWS V14.01,2013-07-21 21:26:00,
2013-07-21 17:27:00,86.9,52.7,28.76,NE,47,0.0,0.0,31,0.00,,---,1.10,VWS V14.01,2013-07-21 21:27:00,
2013-07-21 17:28:00,86.7,51.6,28.76,ENE,67,0.0,0.0,30,0.00,,---,1.10,VWS V14.01,2013-07-21 21:28:00,
2013-07-21 17:29:00,86.5,52.3,28.76,East,84,0.0,2.7,31,0.00,,---,1.10,VWS V14.01,2013-07-21 21:29:00,
2013-07-21 17:30:00,88.2,51.0,28.88,SSE,147,2.7,2.7,28,0.00,,---,0.00,VWS V14.01,2013-07-21 21:30:00,
2013-07-21 17:31:00,86.4,51.3,28.76,NNE,29,0.0,4.0,30,0.00,,---,1.10,VWS V14.01,2013-07-21 21:31:00,
2013-07-21 17:33:00,86.4,52.2,28.76,NNE,31,0.0,0.0,31,0.00,,---,1.10,VWS V14.01,2013-07-21 21:33:00,
2013-07-21 17:34:00,86.5,53.2,28.76,WSW,258,0.0,0.0,32,0.00,,---,1.10,VWS V14.01,2013-07-21 21:34:00,
2013-07-21 17:35:00,88.0,51.8,28.88,SSE,147,0.0,0.0,29,0.00,,---,0.00,VWS V14.01,2013-07-21 21:35:00,
2013-07-21 17:36:00,86.7,52.5,28.76,NNE,17,0.0,0.0,31,0.00,,---,1.10,VWS V14.01,2013-07-21 21:36:00,
2013-07-21 17:37:00,86.9,51.8,28.76,North,2,0.0,0.0,30,0.00,,---,1.10,VWS V14.01,2013-07-21 21:37:00,
2013-07-21 17:38:00,87.1,51.9,28.76,NNW,336,0.0,0.0,30,0.00,,---,1.10,VWS V14.01,2013-07-21 21:38:00,
2013-07-21 17:39:00,87.3,53.0,28.76,NNW,336,0.0,0.0,31,0.00,,---,1.10,VWS V14.01,2013-07-21 21:39:00,
2013-07-21 17:40:00,87.4,51.3,28.88,SE,142,4.5,4.5,29,0.00,,---,0.00,VWS V14.01,2013-07-21 21:40:00,
2013-07-21 17:41:00,87.3,52.1,28.76,NE,43,0.0,0.0,30,0.00,,---,1.10,VWS V14.01,2013-07-21 21:41:00,
2013-07-21 17:42:00,87.4,51.3,28.76,ENE,78,0.0,0.0,29,0.00,,---,1.10,VWS V14.01,2013-07-21 21:42:00,
2013-07-21 17:43:00,87.4,51.3,28.76,ENE,78,0.0,0.0,29,0.00,,---,1.10,VWS V14.01,2013-07-21 21:43:00,
2013-07-21 17:44:00,87.8,52.5,28.76,NNW,336,6.3,6.3,30,0.00,,---,1.10,VWS V14.01,2013-07-21 21:44:00,
2013-07-21 17:45:00,87.3,52.1,28.88,SE,125,4.9,4.9,30,0.00,,---,0.00,VWS V14.01,2013-07-21 21:45:00,
2013-07-21 17:46:00,88.0,51.8,28.76,NNW,341,0.0,2.7,29,0.00,,---,1.10,VWS V14.01,2013-07-21 21:46:00,
2013-07-21 17:49:00,87.4,52.2,28.76,North,351,0.0,0.0,30,0.00,,---,1.10,VWS V14.01,2013-07-21 21:49:00,
2013-07-21 17:50:00,86.9,51.8,28.88,SE,132,3.6,4.9,30,0.00,,---,0.00,VWS V14.01,2013-07-21 21:50:00,
2013-07-21 17:52:00,87.6,53.3,28.76,East,98,0.0,0.0,31,0.00,,---,1.10,VWS V14.01,2013-07-21 21:52:00,
2013-07-21 17:55:00,86.9,51.8,28.88,East,100,4.5,5.4,30,0.00,,---,0.00,VWS V14.01,2013-07-21 21:55:00,
2013-07-21 18:00:00,86.9,50.8,28.85,SE,146,2.7,4.5,29,0.00,,---,0.00,VWS V14.01,2013-07-21 22:00:00,
2013-07-21 18:04:00,87.1,51.9,28.76,ENE,66,0.0,0.0,30,0.00,,---,1.10,VWS V14.01,2013-07-21 22:04:00,
2013-07-21 18:05:00,87.1,51.0,28.85,SE,125,0.0,4.0,29,0.00,,---,0.00,VWS V14.01,2013-07-21 22:05:00,
2013-07-21 18:07:00,87.1,51.9,28.76,ENE,69,0.0,0.0,30,0.00,,---,1.10,VWS V14.01,2013-07-21 22:07:00,
2013-07-21 18:10:00,87.3,51.2,28.85,SSE,149,2.7,4.0,29,0.00,,---,0.00,VWS V14.01,2013-07-21 22:10:00,
2013-07-21 18:11:00,87.1,52.8,28.76,North,351,0.0,4.5,31,0.00,,---,1.10,VWS V14.01,2013-07-21 22:11:00,
2013-07-21 18:16:00,87.8,50.7,28.85,East,89,4.0,4.9,28,0.00,,---,0.00,VWS V14.01,2013-07-21 22:16:00,
2013-07-21 18:18:00,86.5,52.3,28.73,NNW,329,4.0,4.9,31,0.00,,---,1.10,VWS V14.01,2013-07-21 22:18:00,
2013-07-21 18:19:00,86.4,52.2,28.73,NNW,328,0.0,5.8,31,0.00,,---,1.10,VWS V14.01,2013-07-21 22:19:00,
2013-07-21 18:21:00,87.6,50.5,28.85,ESE,104,4.0,5.4,28,0.00,,---,0.00,VWS V14.01,2013-07-21 22:21:00,
2013-07-21 18:26:00,87.4,51.3,28.85,ESE,109,2.7,3.6,29,0.00,,---,0.00,VWS V14.01,2013-07-21 22:26:00,
2013-07-21 18:30:00,86.2,53.7,28.73,North,5,0.0,0.0,33,0.00,,---,1.10,VWS V14.01,2013-07-21 22:30:00,
2013-07-21 18:31:00,87.1,50.1,28.85,SE,132,3.6,4.9,28,0.00,,---,0.00,VWS V14.01,2013-07-21 22:31:00,
2013-07-21 18:33:00,86.7,52.5,28.73,North,5,0.0,0.0,31,0.00,,---,1.10,VWS V14.01,2013-07-21 22:33:00,
2013-07-21 18:36:00,87.1,51.0,28.85,SE,141,4.5,5.8,29,0.00,,---,0.00,VWS V14.01,2013-07-21 22:36:00,
2013-07-21 18:41:00,87.3,51.2,28.85,SE,128,5.4,5.8,29,0.00,,---,0.00,VWS V14.01,2013-07-21 22:41:00,
2013-07-21 18:43:00,88.2,51.0,28.73,NNW,343,4.5,5.8,28,0.00,,---,1.10,VWS V14.01,2013-07-21 22:43:00,
2013-07-21 18:44:00,88.2,51.0,28.73,NNW,334,0.0,4.9,28,0.00,,---,1.10,VWS V14.01,2013-07-21 22:44:00,
2013-07-21 18:46:00,88.2,51.0,28.85,East,97,5.8,6.3,28,0.00,,---,0.00,VWS V14.01,2013-07-21 22:46:00,
2013-07-21 18:51:00,89.6,48.1,28.85,SSE,154,3.6,4.5,24,0.00,,---,0.00,VWS V14.01,2013-07-21 22:51:00,
2013-07-21 18:56:00,89.4,46.8,28.85,SE,127,3.6,4.0,23,0.00,,---,0.00,VWS V14.01,2013-07-21 22:56:00,
2013-07-21 19:01:00,88.9,46.3,28.85,SE,141,0.0,3.1,23,0.00,,---,0.00,VWS V14.01,2013-07-21 23:01:00,
2013-07-21 19:06:00,88.0,50.8,28.85,SE,137,0.0,3.6,28,0.00,,---,0.00,VWS V14.01,2013-07-21 23:06:00,
2013-07-21 19:11:00,89.1,49.8,28.85,SE,130,6.3,6.3,26,0.00,,---,0.00,VWS V14.01,2013-07-21 23:11:00,
2013-07-21 19:16:00,88.5,50.3,28.85,ESE,107,4.9,6.7,27,0.00,,---,0.00,VWS V14.01,2013-07-21 23:16:00,
2013-07-21 19:21:00,88.5,51.3,28.85,East,97,0.0,3.1,28,0.00,,---,0.00,VWS V14.01,2013-07-21 23:21:00,
2013-07-21 19:26:00,88.0,50.8,28.85,SE,138,0.0,2.7,28,0.00,,---,0.00,VWS V14.01,2013-07-21 23:26:00,
2013-07-21 19:31:00,86.7,51.6,28.85,SE,145,3.6,4.9,30,0.00,,---,0.00,VWS V14.01,2013-07-21 23:31:00,
2013-07-21 19:36:00,86.0,52.7,28.85,SSE,158,0.0,0.0,32,0.00,,---,0.00,VWS V14.01,2013-07-21 23:36:00,
2013-07-21 19:41:00,85.5,51.4,28.85,SSE,156,0.0,0.0,31,0.00,,---,0.00,VWS V14.01,2013-07-21 23:41:00,
2013-07-21 19:46:00,85.1,52.0,28.85,East,90,0.0,0.0,32,0.00,,---,0.00,VWS V14.01,2013-07-21 23:46:00,
2013-07-21 19:51:00,84.4,53.0,28.85,SE,131,0.0,0.0,34,0.00,,---,0.00,VWS V14.01,2013-07-21 23:51:00,
2013-07-21 19:56:00,84.0,53.5,28.85,SE,143,0.0,0.0,35,0.00,,---,0.00,VWS V14.01,2013-07-21 23:56:00,
2013-07-21 20:01:00,83.8,54.8,28.85,SE,143,0.0,0.0,37,0.00,,---,0.00,VWS V14.01,2013-07-22 00:01:00,
2013-07-21 20:06:00,83.5,55.2,28.85,WSW,237,0.0,3.1,38,0.00,,---,0.00,VWS V14.01,2013-07-22 00:06:00,
2013-07-21 20:11:00,83.1,55.6,28.85,WSW,237,0.0,0.0,39,0.00,,---,0.00,VWS V14.01,2013-07-22 00:11:00,
2013-07-21 20:16:00,82.8,56.0,28.85,SE,141,4.5,4.5,40,0.00,,---,0.00,VWS V14.01,2013-07-22 00:16:00,
2013-07-21 20:21:00,82.4,56.4,28.85,SE,138,0.0,0.0,41,0.00,,---,0.00,VWS V14.01,2013-07-22 00:21:00,
2013-07-21 20:26:00,82.2,56.2,28.85,SE,138,0.0,0.0,41,0.00,,---,0.00,VWS V14.01,2013-07-22 00:26:00,
2013-07-21 20:31:00,82.0,56.7,28.85,SE,138,0.0,0.0,42,0.00,,---,0.00,VWS V14.01,2013-07-22 00:31:00,
2013-07-21 20:36:00,81.7,56.4,28.85,SE,138,0.0,0.0,42,0.00,,---,0.00,VWS V14.01,2013-07-22 00:36:00,
2013-07-21 20:41:00,81.7,56.4,28.85,SE,138,0.0,0.0,42,0.00,,---,0.00,VWS V14.01,2013-07-22 00:41:00,
2013-07-21 20:46:00,81.5,56.9,28.85,SE,138,0.0,0.0,43,0.00,,---,0.00,VWS V14.01,2013-07-22 00:46:00,
2013-07-21 20:51:00,81.0,57.0,28.85,SE,138,0.0,0.0,44,0.00,,---,0.00,VWS V14.01,2013-07-22 00:51:00,
2013-07-21 20:56:00,81.0,57.6,28.85,SE,138,0.0,0.0,45,0.00,,---,0.00,VWS V14.01,2013-07-22 00:56:00,
2013-07-21 21:01:00,80.8,57.5,28.85,SE,138,0.0,0.0,45,0.00,,---,0.00,VWS V14.01,2013-07-22 01:01:00,
2013-07-21 21:06:00,80.6,59.1,28.85,ESE,114,0.0,4.0,48,0.00,,---,0.00,VWS V14.01,2013-07-22 01:06:00,
2013-07-21 21:11:00,80.2,58.8,28.85,ESE,114,0.0,0.0,48,0.00,,---,0.00,VWS V14.01,2013-07-22 01:11:00,
2013-07-21 21:16:00,80.1,59.8,28.88,ESE,117,0.0,0.0,50,0.00,,---,0.00,VWS V14.01,2013-07-22 01:16:00,
2013-07-21 21:21:00,80.1,59.8,28.88,ESE,116,0.0,0.0,50,0.00,,---,0.00,VWS V14.01,2013-07-22 01:21:00,
2013-07-21 21:26:00,79.7,60.0,28.88,SE,131,0.0,3.1,51,0.00,,---,0.00,VWS V14.01,2013-07-22 01:26:00,
2013-07-21 21:31:00,79.7,60.0,28.88,SE,131,0.0,0.0,51,0.00,,---,0.00,VWS V14.01,2013-07-22 01:31:00,
2013-07-21 21:36:00,79.7,60.5,28.88,SE,131,0.0,0.0,52,0.00,,---,0.00,VWS V14.01,2013-07-22 01:36:00,
2013-07-21 21:41:00,79.5,61.4,28.88,SE,131,0.0,0.0,54,0.00,,---,0.00,VWS V14.01,2013-07-22 01:41:00,
2013-07-21 21:46:00,79.5,60.9,28.88,SE,131,0.0,0.0,53,0.00,,---,0.00,VWS V14.01,2013-07-22 01:46:00,
2013-07-21 21:51:00,79.3,61.3,28.88,ESE,120,0.0,0.0,54,0.00,,---,0.00,VWS V14.01,2013-07-22 01:51:00,
2013-07-21 21:56:00,79.2,61.6,28.88,SE,135,0.0,3.1,55,0.00,,---,0.00,VWS V14.01,2013-07-22 01:56:00,
2013-07-21 22:01:00,79.2,62.1,28.88,SSE,152,0.0,2.7,56,0.00,,---,0.00,VWS V14.01,2013-07-22 02:01:00,
2013-07-21 22:06:00,79.2,62.1,28.88,SSE,152,0.0,0.0,56,0.00,,---,0.00,VWS V14.01,2013-07-22 02:06:00,
2013-07-21 22:11:00,79.0,62.0,28.88,SSE,152,0.0,0.0,56,0.00,,---,0.00,VWS V14.01,2013-07-22 02:11:00,
2013-07-21 22:16:00,78.8,62.3,28.88,SSE,152,0.0,2.7,57,0.00,,---,0.00,VWS V14.01,2013-07-22 02:16:00,
2013-07-21 22:22:00,78.8,63.3,28.88,SSE,151,0.0,0.0,59,0.00,,---,0.00,VWS V14.01,2013-07-22 02:22:00,
2013-07-21 22:27:00,78.8,62.8,28.88,SSE,151,3.1,4.0,58,0.00,,---,0.00,VWS V14.01,2013-07-22 02:27:00,
2013-07-21 22:32:00,78.4,62.5,28.88,SSE,151,0.0,0.0,58,0.00,,---,0.00,VWS V14.01,2013-07-22 02:32:00,
2013-07-21 22:37:00,78.4,62.5,28.88,SSE,151,0.0,0.0,58,0.00,,---,0.00,VWS V14.01,2013-07-22 02:37:00,
2013-07-21 22:42:00,78.3,62.3,28.88,SSE,151,0.0,0.0,58,0.00,,---,0.00,VWS V14.01,2013-07-22 02:42:00,
2013-07-21 22:47:00,78.1,62.6,28.88,SE,134,0.0,3.6,59,0.00,,---,0.00,VWS V14.01,2013-07-22 02:47:00,
2013-07-21 22:52:00,77.9,62.9,28.88,SE,134,0.0,0.0,60,0.00,,---,0.00,VWS V14.01,2013-07-22 02:52:00,
2013-07-21 22:57:00,77.9,63.4,28.88,SE,134,0.0,0.0,61,0.00,,---,0.00,VWS V14.01,2013-07-22 02:57:00,
2013-07-21 23:02:00,77.7,63.7,28.88,SE,134,0.0,0.0,62,0.00,,---,0.00,VWS V14.01,2013-07-22 03:02:00,
2013-07-21 23:07:00,77.5,63.5,28.88,SE,134,0.0,0.0,62,0.00,,---,0.00,VWS V14.01,2013-07-22 03:07:00,
2013-07-21 23:13:00,77.5,63.5,28.88,SW,233,0.0,0.0,62,0.00,,---,0.00,VWS V14.01,2013-07-22 03:13:00,
2013-07-21 23:19:00,77.4,63.8,28.88,SW,233,0.0,0.0,63,0.00,,---,0.00,VWS V14.01,2013-07-22 03:19:00,
2013-07-21 23:24:00,77.4,63.8,28.88,SW,227,0.0,0.0,63,0.00,,---,0.00,VWS V14.01,2013-07-22 03:24:00,
2013-07-21 23:29:00,77.2,63.6,28.88,SW,227,0.0,0.0,63,0.00,,---,0.00,VWS V14.01,2013-07-22 03:29:00,
2013-07-21 23:34:00,77.0,63.5,28.88,SW,227,0.0,0.0,63,0.00,,---,0.00,VWS V14.01,2013-07-22 03:34:00,
2013-07-21 23:39:00,77.0,63.9,28.88,SSW,193,0.0,0.0,64,0.00,,---,0.00,VWS V14.01,2013-07-22 03:39:00,
2013-07-21 23:44:00,76.8,63.7,28.88,SW,230,0.0,0.0,64,0.00,,---,0.00,VWS V14.01,2013-07-22 03:44:00,
2013-07-21 23:49:00,76.6,64.0,28.88,SE,142,0.0,3.6,65,0.00,,---,0.00,VWS V14.01,2013-07-22 03:49:00,
2013-07-21 23:54:00,76.6,64.4,28.88,SE,142,0.0,0.0,66,0.00,,---,0.00,VWS V14.01,2013-07-22 03:54:00,
2013-07-21 23:58:00,70.9,67.5,28.79,WNW,293,0.0,0.0,89,0.00,,---,1.10,VWS V14.01,2013-07-22 03:58:00,
2013-07-21 23:59:00,76.6,64.9,28.88,SE,142,0.0,0.0,67,0.00,,---,0.00,VWS V14.01,2013-07-22 03:59:00,